Weather Service Report


746 
ASUS45 KREV 260510
RWRNV 
NEVADA REGIONAL WEATHER ROUNDUP
NATIONAL WEATHER SERVICE RENO NV
1000 PM PDT MON JUL 25 2016

NOTE: "FAIR" INDICATES FEW OR NO CLOUDS BELOW 12,000 FEET WITH NO
SIGNIFICANT WEATHER AND/OR OBSTRUCTIONS TO VISIBILITY.

NVZ001-003-004-260600-
WESTERN NEVADA
  
CITY           SKY/WX    TMP DP  RH WIND       PRES   REMARKS
RENO           CLEAR     81  40  23 NW17G25   30.12R                  
CARSON CITY    FAIR      77  34  20 CALM      30.15R                  
MINDEN         FAIR      63  39  42 SE9       30.15R                  
SLIDE MTN        N/A     59  28  31 W12         N/A                   
PYRAMID LAKE     N/A     84 N/A N/A SW6         N/A                   
FALLON         CLEAR     84  27  12 W13       30.05R                  
LOVELOCK       CLEAR     74  17  11 W3        30.03R                  
$$

NVZ002-CAZ072-073-260600-
NORTHERN AND CENTRAL SIERRA
  
CITY           SKY/WX    TMP DP  RH WIND       PRES   REMARKS
S. LAKE TAHOE  CLEAR     60  42  51 CALM      30.28R                  
TRUCKEE        CLEAR     55  36  47 SE5       30.28R                  
SQUAW VLY 8000 NOT AVBL                                               
MAMMOTH LAKES    N/A     67  29  24 CALM      30.32R                  
BRIDGEPORT       N/A     65  25  22 W5        30.28R                  
$$

NVZ030-031-036-260600-
NORTHERN NEVADA
  
CITY           SKY/WX    TMP DP  RH WIND       PRES   REMARKS
ELKO           CLEAR     75  20  12 N3        30.10R                  
WINNEMUCCA     CLEAR     73  19  13 CALM      30.05R                  
WENDOVER       PTCLDY    84  30  14 CALM      30.02R                  
$$

NVZ035-037-260600-
CENTRAL NEVADA
  
CITY           SKY/WX    TMP DP  RH WIND       PRES   REMARKS
ELY            PTCLDY    66  23  19 S10       30.18R                  
EUREKA           N/A     70  22  16 SE6       30.18R                  
$$

NVZ013-014-260600-
SOUTH CENTRAL NEVADA
  
CITY           SKY/WX    TMP DP  RH WIND       PRES   REMARKS
TONOPAH        CLEAR     85  22  10 SW12      30.12R                  
$$

NVZ017-020-022-260600-
SOUTHERN NEVADA
  
CITY           SKY/WX    TMP DP  RH WIND       PRES   REMARKS
LAS VEGAS      PTCLDY   101  37  11 S8        29.81R                  
N. LAS VEGAS   PTCLDY   100  40  12 S7        29.84R                  
NELLIS AFB     PTCLDY   101  53  19 SE20      29.81R                  
HENDERSON      PTCLDY    98  49  18 S9        29.90R                  
MERCURY        CLEAR     91  36  14 CALM      29.93R                  
$$
  

Return to Home page


Western Regional Climate Center, wrcc@dri.edu